| time (UTC) | temp F | wind direction | speed MPH | gust MPH | rain 1hr in | rain 24hr in | rain mn in | humidity % | barometer mb |
| 20260505193512 | 55 | 115 | 0.0 | 3.0 | 0.00 | 0.00 | 0.00 | 85 | 1009.7 |
| 20260505193042 | 55 | 306 | 1.0 | 2.0 | 0.00 | 0.00 | 0.00 | 85 | 1009.7 |
| 20260505192513 | 54 | 356 | 0.0 | 3.0 | 0.00 | 0.00 | 0.00 | 85 | 1009.7 |
| 20260505192013 | 54 | 299 | 0.0 | 3.0 | 0.00 | 0.00 | 0.00 | 83 | 1009.7 |
| 20260505191537 | 55 | 14 | 0.0 | 2.0 | 0.00 | 0.00 | 0.00 | 85 | 1009.8 |
| 20260505191013 | 54 | 9 | 0.0 | 2.0 | 0.00 | 0.00 | 0.00 | 88 | 1009.9 |
| 20260505190513 | 54 | 29 | 0.0 | 2.0 | 0.00 | 0.00 | 0.00 | 87 | 1009.8 |
| 20260505190040 | 54 | 32 | 0.0 | 2.0 | 0.00 | 0.00 | 0.00 | 87 | 1009.7 |
| 20260505185515 | 54 | 31 | 1.0 | 2.0 | 0.00 | 0.00 | 0.00 | 87 | 1009.7 |
| 20260505185015 | 53 | 73 | 0.0 | 3.0 | 0.00 | 0.00 | 0.00 | 88 | 1009.6 |
| 20260505184535 | 53 | 45 | 1.0 | 3.0 | 0.00 | 0.00 | 0.00 | 88 | 1009.7 |
| 20260505184015 | 53 | 73 | 1.0 | 3.0 | 0.00 | 0.00 | 0.00 | 89 | 1009.7 |
| 20260505183512 | 53 | 52 | 0.0 | 2.0 | 0.00 | 0.00 | 0.00 | 88 | 1009.6 |
| 20260505183037 | 53 | 64 | 0.0 | 2.0 | 0.00 | 0.00 | 0.00 | 89 | 1009.5 |
| 20260505182519 | 52 | 74 | 0.0 | 2.0 | 0.00 | 0.00 | 0.00 | 90 | 1009.4 |
| 20260505182013 | 52 | 54 | 0.0 | 2.0 | 0.00 | 0.00 | 0.00 | 91 | 1009.3 |
| 20260505181541 | 52 | 20 | 0.0 | 2.0 | 0.00 | 0.00 | 0.00 | 90 | 1009.2 |
| 20260505181015 | 52 | 79 | 1.0 | 2.0 | 0.00 | 0.00 | 0.00 | 90 | 1009.2 |
| 20260505180515 | 51 | 45 | 0.0 | 3.0 | 0.00 | 0.00 | 0.00 | 90 | 1009.3 |
| 20260505180059 | 51 | 42 | 2.0 | 3.0 | 0.00 | 0.00 | 0.00 | 90 | 1009.3 |
| 20260505175515 | 51 | 41 | 1.0 | 2.0 | 0.00 | 0.00 | 0.00 | 91 | 1009.3 |
| 20260505175018 | 51 | 41 | 0.0 | 2.0 | 0.00 | 0.00 | 0.00 | 91 | 1009.3 |
| 20260505174555 | 51 | 41 | 1.0 | 3.0 | 0.00 | 0.00 | 0.00 | 91 | 1009.3 |
| 20260505174015 | 51 | 43 | 1.0 | 2.0 | 0.00 | 0.00 | 0.00 | 92 | 1009.2 |
| 20260505173519 | 51 | 60 | 0.0 | 2.0 | 0.00 | 0.00 | 0.00 | 93 | 1009.3 |
| 20260505173046 | 51 | 60 | 0.0 | 2.0 | 0.00 | 0.00 | 0.00 | 93 | 1009.2 |
| 20260505172514 | 51 | 62 | 0.0 | 1.0 | 0.00 | 0.00 | 0.00 | 94 | 1009.1 |
| 20260505172015 | 51 | 71 | 0.0 | 1.0 | 0.00 | 0.00 | 0.00 | 95 | 1009.2 |
| 20260505171537 | 50 | 70 | 0.0 | 1.0 | 0.00 | 0.00 | 0.00 | 95 | 1009.1 |
| 20260505171017 | 50 | 83 | 0.0 | 1.0 | 0.00 | 0.00 | 0.00 | 96 | 1009.1 |
| 20260505170515 | 50 | 83 | 0.0 | 1.0 | 0.00 | 0.00 | 0.00 | 96 | 1009.2 |
| 20260505170040 | 50 | 62 | 0.0 | 1.0 | 0.00 | 0.00 | 0.00 | 96 | 1009.3 |
| 20260505165518 | 49 | 81 | 0.0 | 1.0 | 0.00 | 0.00 | 0.00 | 96 | 1009.2 |
| 20260505165013 | 49 | 82 | 0.0 | 2.0 | 0.00 | 0.00 | 0.00 | 96 | 1009.2 |
| 20260505164542 | 49 | 82 | 0.0 | 2.0 | 0.00 | 0.00 | 0.00 | 96 | 1009.2 |
| 20260505164015 | 49 | 87 | 0.0 | 2.0 | 0.00 | 0.00 | 0.00 | 96 | 1009.2 |
| 20260505163513 | 49 | 91 | 0.0 | 2.0 | 0.00 | 0.00 | 0.00 | 96 | 1009.2 |
| 20260505163052 | 49 | 60 | 0.0 | 2.0 | 0.00 | 0.00 | 0.00 | 96 | 1009.2 |
| 20260505162515 | 49 | 49 | 0.0 | 2.0 | 0.00 | 0.00 | 0.00 | 96 | 1009.2 |
| 20260505162016 | 49 | 35 | 0.0 | 1.0 | 0.00 | 0.00 | 0.00 | 96 | 1009.2 |
| 20260505161538 | 48 | 35 | 0.0 | 1.0 | 0.00 | 0.00 | 0.00 | 97 | 1009.2 |
| 20260505161015 | 48 | 35 | 0.0 | 1.0 | 0.00 | 0.00 | 0.00 | 96 | 1009.2 |
| 20260505160516 | 48 | 35 | 0.0 | 2.0 | 0.00 | 0.00 | 0.00 | 96 | 1009.3 |
| 20260505153042 | 48 | 52 | 0.0 | 1.0 | 0.00 | 0.00 | 0.00 | 97 | 1009.1 |
| 20260505152516 | 47 | 54 | 0.0 | 2.0 | 0.00 | 0.00 | 0.00 | 97 | 1009.1 |
| 20260505152015 | 47 | 54 | 0.0 | 2.0 | 0.00 | 0.00 | 0.00 | 96 | 1009.1 |
| 20260505151537 | 47 | 293 | 0.0 | 0.0 | 0.00 | 0.00 | 0.00 | 97 | 1009.2 |
| 20260505151015 | 47 | 293 | 0.0 | 0.0 | 0.00 | 0.00 | 0.00 | 97 | 1009.1 |
| 20260505150517 | 47 | 293 | 0.0 | 1.0 | 0.00 | 0.00 | 0.00 | 96 | 1009.1 |
| 20260505140516 | 46 | 293 | 0.0 | 1.0 | 0.00 | 0.00 | 0.00 | 96 | 1008.7 |
| 20260505125015 | 46 | 16 | 0.0 | 2.0 | 0.00 | 0.00 | 0.00 | 96 | 1008.4 |
| 20260505124539 | 46 | 16 | 0.0 | 2.0 | 0.00 | 0.00 | 0.00 | 96 | 1008.3 |
| 20260505124016 | 46 | 303 | 0.0 | 1.0 | 0.00 | 0.00 | 0.00 | 96 | 1008.3 |
| 20260505123518 | 46 | 303 | 0.0 | 1.0 | 0.00 | 0.00 | 0.00 | 96 | 1008.3 |
| 20260505123044 | 46 | 303 | 0.0 | 1.0 | 0.00 | 0.00 | 0.00 | 96 | 1008.3 |
| 20260505122516 | 46 | 303 | 0.0 | 1.0 | 0.00 | 0.00 | 0.00 | 96 | 1008.3 |
| 20260505122017 | 46 | 303 | 0.0 | 1.0 | 0.00 | 0.00 | 0.00 | 96 | 1008.3 |
| 20260505121539 | 46 | 303 | 0.0 | 1.0 | 0.00 | 0.00 | 0.00 | 96 | 1008.3 |
| 20260505121019 | 47 | 303 | 0.0 | 2.0 | 0.00 | 0.00 | 0.00 | 96 | 1008.3 |
| 20260505120519 | 47 | 258 | 0.0 | 1.0 | 0.00 | 0.00 | 0.00 | 96 | 1008.2 |
| 20260505120046 | 47 | 258 | 0.0 | 1.0 | 0.00 | 0.00 | 0.00 | 96 | 1008.2 |
| 20260505115518 | 47 | 258 | 0.0 | 2.0 | 0.00 | 0.00 | 0.00 | 96 | 1008.2 |
| 20260505115015 | 47 | 258 | 0.0 | 2.0 | 0.00 | 0.00 | 0.00 | 96 | 1008.3 |
| 20260505114544 | 47 | 312 | 0.0 | 1.0 | 0.00 | 0.00 | 0.00 | 96 | 1008.1 |
| 20260505114023 | 46 | 10 | 0.0 | 0.0 | 0.00 | 0.00 | 0.00 | 96 | 1008.2 |
| 20260505113521 | 46 | 10 | 0.0 | 2.0 | 0.00 | 0.00 | 0.00 | 96 | 1008.2 |
| 20260505113106 | 47 | 10 | 0.0 | 2.0 | 0.00 | 0.00 | 0.00 | 95 | 1008.1 |
| 20260505112516 | 47 | 12 | 0.0 | 2.0 | 0.00 | 0.00 | 0.00 | 95 | 1008.1 |
| 20260505112015 | 47 | 345 | 0.0 | 2.0 | 0.00 | 0.00 | 0.00 | 95 | 1008.1 |
| 20260505111542 | 47 | 276 | 0.0 | 2.0 | 0.00 | 0.00 | 0.00 | 96 | 1008.1 |
| 20260505111019 | 47 | 254 | 0.0 | 1.0 | 0.00 | 0.00 | 0.00 | 96 | 1008.1 |
| 20260505110520 | 47 | 254 | 0.0 | 1.0 | 0.00 | 0.00 | 0.00 | 95 | 1008.0 |
| 20260505110332 | 47 | 254 | 0.0 | 2.0 | 0.00 | 0.00 | 0.00 | 95 | 1008.0 |
| 20260505102013 | 47 | 258 | 0.0 | 2.0 | 0.00 | 0.00 | 0.00 | 95 | 1007.9 |
| 20260505101536 | 47 | 258 | 0.0 | 2.0 | 0.00 | 0.00 | 0.00 | 95 | 1007.8 |
| 20260505101010 | 47 | 258 | 0.0 | 2.0 | 0.00 | 0.00 | 0.00 | 95 | 1007.8 |
| 20260505100512 | 47 | 258 | 0.0 | 1.0 | 0.00 | 0.00 | 0.00 | 95 | 1007.7 |
| 20260505100037 | 47 | 258 | 0.0 | 1.0 | 0.00 | 0.00 | 0.00 | 95 | 1007.8 |
| 20260505095512 | 47 | 258 | 0.0 | 2.0 | 0.00 | 0.00 | 0.00 | 95 | 1007.8 |
| 20260505095014 | 47 | 258 | 0.0 | 2.0 | 0.00 | 0.00 | 0.00 | 95 | 1007.8 |
| 20260505094537 | 47 | 258 | 0.0 | 2.0 | 0.00 | 0.00 | 0.00 | 95 | 1007.9 |
| 20260505094010 | 47 | 258 | 0.0 | 1.0 | 0.00 | 0.00 | 0.00 | 95 | 1007.9 |
| 20260505093511 | 47 | 258 | 0.0 | 1.0 | 0.00 | 0.00 | 0.00 | 95 | 1007.9 |
| 20260505093039 | 47 | 258 | 0.0 | 1.0 | 0.00 | 0.00 | 0.00 | 95 | 1007.9 |
| 20260505092511 | 47 | 258 | 0.0 | 2.0 | 0.00 | 0.00 | 0.00 | 95 | 1007.9 |
| 20260505092012 | 47 | 258 | 0.0 | 2.0 | 0.00 | 0.00 | 0.00 | 95 | 1007.9 |
| 20260505091544 | 47 | 258 | 0.0 | 2.0 | 0.00 | 0.00 | 0.00 | 94 | 1007.9 |
| 20260505091014 | 47 | 258 | 0.0 | 2.0 | 0.00 | 0.00 | 0.00 | 94 | 1007.9 |
| 20260505090512 | 47 | 258 | 0.0 | 2.0 | 0.00 | 0.00 | 0.00 | 94 | 1007.9 |
| 20260505090038 | 47 | 258 | 0.0 | 2.0 | 0.00 | 0.00 | 0.00 | 95 | 1007.9 |
| 20260505085513 | 48 | 258 | 0.0 | 2.0 | 0.00 | 0.00 | 0.00 | 95 | 1008.0 |
| 20260505085012 | 48 | 258 | 0.0 | 2.0 | 0.00 | 0.00 | 0.00 | 95 | 1008.0 |
| 20260505084535 | 47 | 258 | 0.0 | 2.0 | 0.00 | 0.00 | 0.00 | 94 | 1008.1 |
| 20260505084012 | 47 | 258 | 0.0 | 2.0 | 0.00 | 0.00 | 0.00 | 94 | 1008.0 |
| 20260505083513 | 48 | 258 | 0.0 | 2.0 | 0.00 | 0.00 | 0.00 | 94 | 1008.0 |
| 20260505083039 | 48 | 258 | 1.0 | 2.0 | 0.00 | 0.00 | 0.00 | 94 | 1008.0 |
| 20260505082512 | 48 | 258 | 0.0 | 1.0 | 0.00 | 0.00 | 0.00 | 94 | 1008.1 |
| 20260505082011 | 48 | 258 | 0.0 | 1.0 | 0.00 | 0.00 | 0.00 | 94 | 1008.1 |
| 20260505081538 | 48 | 258 | 0.0 | 1.0 | 0.00 | 0.00 | 0.00 | 94 | 1008.0 |
| 20260505081012 | 48 | 258 | 0.0 | 1.0 | 0.00 | 0.00 | 0.00 | 94 | 1008.1 |
| 20260505080511 | 48 | 258 | 0.0 | 1.0 | 0.00 | 0.00 | 0.00 | 94 | 1008.2 |
| 20260505080034 | 48 | 258 | 0.0 | 1.0 | 0.00 | 0.00 | 0.00 | 94 | 1008.2 |
| 20260505075512 | 48 | 258 | 0.0 | 1.0 | 0.00 | 0.00 | 0.00 | 94 | 1008.3 |
| 20260505075014 | 48 | 258 | 0.0 | 1.0 | 0.00 | 0.00 | 0.00 | 94 | 1008.2 |
| 20260505074538 | 48 | 258 | 0.0 | 1.0 | 0.00 | 0.00 | 0.00 | 94 | 1008.3 |
| 20260505074012 | 48 | 258 | 0.0 | 1.0 | 0.00 | 0.00 | 0.00 | 94 | 1008.3 |
| 20260505073513 | 48 | 258 | 0.0 | 0.0 | 0.00 | 0.00 | 0.00 | 94 | 1008.3 |
| 20260505073037 | 48 | 258 | 0.0 | 1.0 | 0.00 | 0.00 | 0.00 | 94 | 1008.3 |
| 20260505072519 | 48 | 258 | 0.0 | 2.0 | 0.00 | 0.00 | 0.00 | 94 | 1008.4 |
| 20260505072011 | 48 | 251 | 0.0 | 1.0 | 0.00 | 0.00 | 0.00 | 94 | 1008.4 |
| 20260505071552 | 48 | 251 | 0.0 | 1.0 | 0.00 | 0.00 | 0.00 | 94 | 1008.4 |
| 20260505071011 | 48 | 251 | 0.0 | 1.0 | 0.00 | 0.00 | 0.00 | 94 | 1008.4 |
| 20260505070514 | 48 | 251 | 0.0 | 1.0 | 0.00 | 0.00 | 0.00 | 94 | 1008.4 |
| 20260505070047 | 48 | 251 | 0.0 | 1.0 | 0.00 | 0.00 | 0.00 | 94 | 1008.5 |
| 20260505065514 | 48 | 251 | 0.0 | 1.0 | 0.00 | 0.00 | 0.00 | 94 | 1008.5 |
| 20260505065012 | 48 | 251 | 0.0 | 1.0 | 0.00 | 0.00 | 0.00 | 94 | 1008.5 |
| 20260505064536 | 49 | 251 | 0.0 | 1.0 | 0.00 | 0.00 | 0.00 | 94 | 1008.5 |
| 20260505064009 | 49 | 251 | 0.0 | 1.0 | 0.00 | 0.00 | 0.00 | 94 | 1008.5 |
| 20260505063512 | 49 | 251 | 0.0 | 1.0 | 0.00 | 0.00 | 0.00 | 94 | 1008.4 |
| 20260505063053 | 49 | 251 | 0.0 | 1.0 | 0.00 | 0.00 | 0.00 | 94 | 1008.5 |
| 20260505062517 | 49 | 251 | 0.0 | 2.0 | 0.00 | 0.00 | 0.00 | 94 | 1008.3 |
| 20260505062013 | 49 | 251 | 0.0 | 2.0 | 0.00 | 0.00 | 0.00 | 94 | 1008.2 |
| 20260505061604 | 49 | 251 | 0.0 | 2.0 | 0.00 | 0.00 | 0.00 | 93 | 1008.2 |
| 20260505061013 | 49 | 251 | 0.0 | 2.0 | 0.00 | 0.00 | 0.00 | 93 | 1008.2 |
| 20260505060511 | 49 | 251 | 1.0 | 2.0 | 0.00 | 0.00 | 0.00 | 93 | 1008.2 |
| 20260505060038 | 49 | 243 | 0.0 | 2.0 | 0.00 | 0.00 | 0.00 | 93 | 1008.2 |
| 20260505055517 | 49 | 243 | 0.0 | 2.0 | 0.00 | 0.00 | 0.00 | 93 | 1008.1 |
| 20260505055016 | 49 | 243 | 0.0 | 2.0 | 0.00 | 0.00 | 0.00 | 93 | 1008.0 |
| 20260505054548 | 49 | 243 | 0.0 | 2.0 | 0.00 | 0.00 | 0.00 | 93 | 1008.0 |
| 20260505054014 | 49 | 243 | 0.0 | 2.0 | 0.00 | 0.00 | 0.00 | 93 | 1008.0 |
| 20260505053514 | 49 | 243 | 0.0 | 1.0 | 0.00 | 0.00 | 0.00 | 93 | 1008.1 |
| 20260505053042 | 49 | 243 | 0.0 | 2.0 | 0.00 | 0.00 | 0.00 | 93 | 1008.0 |
| 20260505052510 | 49 | 243 | 0.0 | 2.0 | 0.00 | 0.00 | 0.00 | 93 | 1007.9 |
| 20260505052013 | 49 | 243 | 0.0 | 2.0 | 0.00 | 0.00 | 0.00 | 93 | 1007.9 |
| 20260505051556 | 49 | 243 | 0.0 | 2.0 | 0.00 | 0.00 | 0.00 | 93 | 1008.0 |
| 20260505051013 | 49 | 243 | 0.0 | 2.0 | 0.00 | 0.00 | 0.00 | 93 | 1008.0 |
| 20260505050516 | 49 | 243 | 0.0 | 2.0 | 0.00 | 0.00 | 0.00 | 93 | 1008.0 |
| 20260505041548 | 49 | 243 | 0.0 | 2.0 | 0.00 | 0.00 | 0.00 | 92 | 1007.6 |
| 20260505041010 | 49 | 243 | 0.0 | 2.0 | 0.00 | 0.00 | 0.00 | 92 | 1007.6 |
| 20260505040514 | 49 | 243 | 1.0 | 2.0 | 0.00 | 0.00 | 0.00 | 92 | 1007.5 |
| 20260505040040 | 50 | 243 | 0.0 | 2.0 | 0.00 | 0.00 | 0.00 | 92 | 1007.5 |
| 20260505035515 | 50 | 243 | 0.0 | 2.0 | 0.00 | 0.00 | 0.00 | 92 | 1007.3 |
| 20260505035011 | 50 | 243 | 0.0 | 2.0 | 0.00 | 0.00 | 0.00 | 92 | 1007.3 |
| 20260505034539 | 50 | 243 | 1.0 | 2.0 | 0.00 | 0.00 | 0.00 | 92 | 1007.3 |
| 20260505034015 | 50 | 243 | 0.0 | 2.0 | 0.00 | 0.00 | 0.00 | 92 | 1007.2 |
| 20260505033512 | 50 | 243 | 0.0 | 3.0 | 0.00 | 0.00 | 0.00 | 92 | 1007.2 |
| 20260505033043 | 50 | 242 | 1.0 | 3.0 | 0.00 | 0.00 | 0.00 | 92 | 1007.1 |
| 20260505032512 | 50 | 243 | 1.0 | 3.0 | 0.00 | 0.00 | 0.00 | 91 | 1007.0 |
| 20260505032012 | 50 | 243 | 0.0 | 3.0 | 0.00 | 0.00 | 0.00 | 91 | 1006.9 |
| 20260505031539 | 50 | 241 | 1.0 | 3.0 | 0.00 | 0.00 | 0.00 | 91 | 1006.9 |
| 20260505031011 | 50 | 240 | 0.0 | 3.0 | 0.00 | 0.00 | 0.00 | 91 | 1006.9 |
| 20260505030512 | 50 | 248 | 0.0 | 2.0 | 0.00 | 0.00 | 0.00 | 91 | 1006.8 |
| 20260505030044 | 50 | 248 | 1.0 | 3.0 | 0.00 | 0.00 | 0.00 | 91 | 1006.9 |
| 20260505025515 | 50 | 248 | 1.0 | 2.0 | 0.00 | 0.00 | 0.00 | 91 | 1006.9 |
| 20260505025011 | 50 | 258 | 1.0 | 2.0 | 0.00 | 0.00 | 0.00 | 90 | 1006.8 |
| 20260505024547 | 51 | 249 | 1.0 | 2.0 | 0.00 | 0.00 | 0.00 | 90 | 1006.8 |
| 20260505024013 | 51 | 239 | 1.0 | 2.0 | 0.00 | 0.00 | 0.00 | 90 | 1006.8 |
| 20260505023512 | 51 | 239 | 1.0 | 2.0 | 0.00 | 0.00 | 0.00 | 90 | 1006.8 |
| 20260505023040 | 51 | 253 | 1.0 | 3.0 | 0.00 | 0.00 | 0.00 | 90 | 1006.8 |
| 20260505022512 | 51 | 247 | 1.0 | 2.0 | 0.00 | 0.00 | 0.00 | 90 | 1006.8 |
| 20260505022012 | 51 | 245 | 1.0 | 3.0 | 0.00 | 0.00 | 0.00 | 90 | 1006.9 |
| 20260505021537 | 51 | 245 | 1.0 | 3.0 | 0.00 | 0.00 | 0.00 | 90 | 1006.9 |
| 20260505021012 | 51 | 249 | 0.0 | 3.0 | 0.00 | 0.00 | 0.00 | 89 | 1006.8 |
| 20260505020515 | 51 | 251 | 1.0 | 3.0 | 0.00 | 0.00 | 0.00 | 89 | 1006.8 |
| 20260505020052 | 51 | 244 | 1.0 | 3.0 | 0.00 | 0.00 | 0.00 | 89 | 1006.8 |
| 20260505015513 | 52 | 232 | 1.0 | 3.0 | 0.00 | 0.00 | 0.00 | 89 | 1006.8 |
| 20260505015016 | 52 | 245 | 1.0 | 3.0 | 0.00 | 0.00 | 0.00 | 89 | 1006.8 |
| 20260505014549 | 52 | 251 | 1.0 | 3.0 | 0.00 | 0.00 | 0.00 | 89 | 1006.8 |
| 20260505014017 | 52 | 264 | 1.0 | 3.0 | 0.00 | 0.00 | 0.00 | 89 | 1006.8 |
| 20260505013511 | 52 | 244 | 1.0 | 3.0 | 0.00 | 0.00 | 0.00 | 88 | 1006.7 |
| 20260505013041 | 52 | 249 | 1.0 | 4.0 | 0.00 | 0.00 | 0.00 | 88 | 1006.8 |
| 20260505012514 | 52 | 247 | 2.0 | 4.0 | 0.00 | 0.00 | 0.00 | 88 | 1006.8 |
| 20260505012012 | 52 | 243 | 1.0 | 4.0 | 0.00 | 0.00 | 0.00 | 88 | 1006.7 |
| 20260505011541 | 53 | 244 | 1.0 | 4.0 | 0.00 | 0.00 | 0.00 | 87 | 1006.8 |
| 20260505011011 | 53 | 247 | 1.0 | 4.0 | 0.00 | 0.00 | 0.00 | 87 | 1006.9 |
| 20260505010512 | 53 | 250 | 1.0 | 4.0 | 0.00 | 0.00 | 0.00 | 87 | 1006.9 |
| 20260505010048 | 53 | 245 | 2.0 | 4.0 | 0.00 | 0.00 | 0.00 | 86 | 1006.8 |
| 20260505005515 | 54 | 248 | 2.0 | 4.0 | 0.00 | 0.00 | 0.00 | 85 | 1006.8 |
| 20260505005012 | 54 | 246 | 1.0 | 4.0 | 0.00 | 0.00 | 0.00 | 85 | 1006.8 |
| 20260505004538 | 54 | 252 | 1.0 | 4.0 | 0.00 | 0.00 | 0.00 | 85 | 1006.9 |
| 20260505004011 | 54 | 283 | 2.0 | 4.0 | 0.00 | 0.00 | 0.00 | 84 | 1007.0 |
| 20260505003518 | 55 | 241 | 2.0 | 4.0 | 0.00 | 0.00 | 0.00 | 84 | 1006.9 |
| 20260505003041 | 55 | 261 | 1.0 | 4.0 | 0.00 | 0.00 | 0.00 | 83 | 1006.8 |
| 20260505002512 | 55 | 250 | 2.0 | 3.0 | 0.00 | 0.00 | 0.00 | 83 | 1006.7 |
| 20260505002014 | 55 | 247 | 1.0 | 3.0 | 0.00 | 0.00 | 0.00 | 83 | 1006.8 |
| 20260505001541 | 56 | 246 | 1.0 | 4.0 | 0.00 | 0.00 | 0.00 | 82 | 1006.8 |
| 20260505001014 | 56 | 247 | 2.0 | 4.0 | 0.00 | 0.00 | 0.00 | 81 | 1006.8 |
| 20260505000512 | 56 | 265 | 1.0 | 3.0 | 0.00 | 0.00 | 0.00 | 80 | 1006.7 |
| 20260505000046 | 57 | 216 | 1.0 | 3.0 | 0.00 | 0.00 | 0.00 | 80 | 1006.8 |
| 20260504235511 | 57 | 236 | 1.0 | 3.0 | 0.00 | 0.00 | 0.00 | 81 | 1006.8 |
| 20260504235014 | 57 | 249 | 1.0 | 3.0 | 0.00 | 0.00 | 0.00 | 81 | 1006.8 |
| 20260504234539 | 57 | 256 | 1.0 | 3.0 | 0.00 | 0.00 | 0.00 | 82 | 1006.9 |
| 20260504234014 | 57 | 272 | 1.0 | 3.0 | 0.00 | 0.00 | 0.00 | 81 | 1006.9 |
| 20260504233515 | 57 | 260 | 1.0 | 3.0 | 0.00 | 0.00 | 0.00 | 81 | 1007.0 |
| 20260504233101 | 57 | 243 | 1.0 | 4.0 | 0.00 | 0.00 | 0.00 | 81 | 1007.0 |
| 20260504232513 | 57 | 256 | 1.0 | 4.0 | 0.00 | 0.00 | 0.00 | 81 | 1007.0 |
| 20260504232013 | 57 | 243 | 1.0 | 4.0 | 0.00 | 0.00 | 0.00 | 81 | 1007.0 |
| 20260504231546 | 57 | 249 | 1.0 | 3.0 | 0.00 | 0.00 | 0.00 | 81 | 1007.0 |
| 20260504231014 | 57 | 241 | 1.0 | 4.0 | 0.00 | 0.00 | 0.00 | 80 | 1007.1 |
| 20260504230512 | 57 | 228 | 1.0 | 4.0 | 0.00 | 0.00 | 0.00 | 81 | 1007.1 |
| 20260504230051 | 57 | 251 | 1.0 | 3.0 | 0.00 | 0.00 | 0.00 | 82 | 1007.1 |
| 20260504225518 | 57 | 247 | 1.0 | 3.0 | 0.00 | 0.00 | 0.00 | 81 | 1007.2 |
| 20260504225013 | 57 | 237 | 1.0 | 3.0 | 0.00 | 0.00 | 0.00 | 80 | 1007.2 |
| 20260504224542 | 57 | 254 | 1.0 | 3.0 | 0.00 | 0.00 | 0.00 | 81 | 1007.3 |
| 20260504224014 | 57 | 277 | 2.0 | 3.0 | 0.00 | 0.00 | 0.00 | 80 | 1007.2 |
| 20260504223512 | 57 | 277 | 1.0 | 4.0 | 0.00 | 0.00 | 0.00 | 80 | 1007.2 |
| 20260504223039 | 58 | 231 | 1.0 | 4.0 | 0.00 | 0.00 | 0.00 | 80 | 1007.3 |
| 20260504222515 | 58 | 264 | 1.0 | 3.0 | 0.00 | 0.00 | 0.00 | 79 | 1007.3 |
| 20260504222013 | 58 | 311 | 1.0 | 4.0 | 0.00 | 0.00 | 0.00 | 79 | 1007.4 |
| 20260504221543 | 58 | 271 | 1.0 | 4.0 | 0.00 | 0.00 | 0.00 | 81 | 1007.5 |
| 20260504221012 | 58 | 235 | 1.0 | 3.0 | 0.00 | 0.00 | 0.00 | 80 | 1007.6 |
| 20260504220515 | 57 | 267 | 1.0 | 4.0 | 0.00 | 0.00 | 0.00 | 81 | 1007.6 |
| 20260504220040 | 57 | 297 | 1.0 | 4.0 | 0.00 | 0.00 | 0.00 | 80 | 1007.6 |
| 20260504215513 | 57 | 278 | 1.0 | 4.0 | 0.00 | 0.00 | 0.00 | 81 | 1007.6 |
| 20260504215012 | 57 | 258 | 1.0 | 4.0 | 0.00 | 0.00 | 0.00 | 81 | 1007.6 |
| 20260504214545 | 57 | 275 | 2.0 | 4.0 | 0.00 | 0.00 | 0.00 | 80 | 1007.6 |
| 20260504214012 | 57 | 51 | 1.0 | 3.0 | 0.00 | 0.00 | 0.00 | 81 | 1007.6 |
| 20260504213513 | 57 | 268 | 1.0 | 3.0 | 0.00 | 0.00 | 0.00 | 82 | 1007.5 |
| 20260504213037 | 57 | 269 | 1.0 | 3.0 | 0.00 | 0.00 | 0.00 | 82 | 1007.5 |
| 20260504212521 | 57 | 5 | 0.0 | 3.0 | 0.00 | 0.00 | 0.00 | 82 | 1007.5 |
| 20260504212015 | 57 | 248 | 1.0 | 3.0 | 0.00 | 0.00 | 0.00 | 81 | 1007.4 |
| 20260504211546 | 57 | 287 | 0.0 | 3.0 | 0.00 | 0.00 | 0.00 | 82 | 1007.5 |
| 20260504211013 | 56 | 280 | 1.0 | 4.0 | 0.00 | 0.00 | 0.00 | 82 | 1007.5 |
| 20260504210514 | 56 | 293 | 2.0 | 4.0 | 0.00 | 0.00 | 0.00 | 82 | 1007.6 |
| 20260504210045 | 56 | 259 | 1.0 | 5.0 | 0.00 | 0.00 | 0.00 | 83 | 1007.5 |
| 20260504205514 | 56 | 299 | 2.0 | 5.0 | 0.00 | 0.00 | 0.00 | 82 | 1007.5 |
| 20260504205013 | 56 | 254 | 0.0 | 3.0 | 0.00 | 0.00 | 0.00 | 83 | 1007.7 |
| 20260504204549 | 56 | 255 | 1.0 | 3.0 | 0.00 | 0.00 | 0.00 | 83 | 1007.7 |
| 20260504204016 | 56 | 256 | 1.0 | 3.0 | 0.00 | 0.00 | 0.00 | 83 | 1007.7 |
| 20260504203513 | 56 | 291 | 1.0 | 2.0 | 0.00 | 0.00 | 0.00 | 84 | 1007.7 |
| 20260504203055 | 56 | 251 | 0.0 | 3.0 | 0.00 | 0.00 | 0.00 | 84 | 1007.7 |
| 20260504202514 | 55 | 262 | 0.0 | 5.0 | 0.00 | 0.00 | 0.00 | 84 | 1007.8 |
| 20260504202015 | 55 | 291 | 0.0 | 2.0 | 0.00 | 0.00 | 0.00 | 84 | 1007.8 |
| 20260504201547 | 55 | 249 | 1.0 | 2.0 | 0.00 | 0.00 | 0.00 | 85 | 1008.0 |
| 20260504201023 | 55 | 245 | 1.0 | 2.0 | 0.00 | 0.00 | 0.00 | 85 | 1007.9 |
| 20260504200514 | 55 | 319 | 0.0 | 2.0 | 0.00 | 0.00 | 0.00 | 85 | 1007.9 |
| 20260504200053 | 55 | 347 | 0.0 | 2.0 | 0.00 | 0.00 | 0.00 | 85 | 1007.9 |
| 20260504195515 | 55 | 343 | 0.0 | 2.0 | 0.00 | 0.00 | 0.00 | 85 | 1007.8 |
| 20260504195015 | 54 | 236 | 0.0 | 2.0 | 0.00 | 0.00 | 0.00 | 86 | 1007.9 |
| 20260504194545 | 54 | 236 | 0.0 | 2.0 | 0.00 | 0.00 | 0.00 | 86 | 1007.9 |
| 20260504194014 | 54 | 254 | 0.0 | 2.0 | 0.00 | 0.00 | 0.00 | 87 | 1007.8 |